Terminal Aerodrome Forecast
Issued by NWS Blacksburg, VA

Home | Current Version | Previous Version | Text Only | Print | Product List | Glossary On
Versions: 1 2 3 4 5 6 7 8 9 10 11 12 13 14 15 16
000
FTUS41 KRNK 162325
TAFROA
TAF
KROA 162325Z 1700/1724 11008KT P6SM SKC
     FM170200 VRB04KT P6SM SKC
     FM171900 13009KT P6SM SKC=

USA.gov is the U.S. government's official web portal to all federal, state and local government web resources and services.